Погода в Овингс Миллс

США     39°25′08″N   76°46′48″W
темп.,
°C
ветер,
м/с
пор.,
м/с
влажн.,
%
обл.,
%
осадки,
мм/ч
давл.,
гПа
погр.,
м
26 сентября, вс
вс2623:00+15з2271100 0.0 101449
02:00+15зсз4107343 0.0 1014416
05:00+13сз411850 0.0 1015355
08:00+12сз411820 0.0 1016336
11:00+18зсз58532 0.0 10171159
14:00+20зсз59451 0.0 10161789
17:00+20зсз510470 0.0 10151831
20:00+15зсз26610 0.0 1017132
27 сентября, пн
пн2723:00+14зюз35604 0.0 101783
02:00+14зюз38645 0.0 1017160
05:00+13з396460 0.0 1017187
08:00+15зюз31058100 0.0 1018243
11:00+21юз464791 0.0 1017534
14:00+25юз57405 0.0 10151028
17:00+24юз48465 0.0 1013940
20:00+20ююз4124924 0.0 1012350
28 сентября, вт
вт2823:00+20юз4135364 0.0 1013381
02:00+17зюз3963100 0.0 1012195
05:00+17зюз3966100 0.0 1011213
08:00+17з2790100 1.6 1012168
11:00+19зюз3891100 1.6 1013401
14:00+23з597165 1.8 10111131
17:00+22сз47775 1.5 1010555
20:00+19сз27893 2.1 1011178
29 сентября, ср
ср2923:00+17ссз119495 0.0 101113
02:00+15с25965 0.0 1012144
05:00+14с379541 0.0 1012208
08:00+13ссз26866 0.0 1014186
11:00+19сз35565 0.0 1015838
14:00+22сз56440 0.0 10141392
17:00+21сз38510 0.0 10131627
20:00+17сз26670 0.0 1015115
30 сентября, чт
чт3023:00+15с410730 0.0 1016333
02:00+11ссв38790 0.0 1018292
05:00+9ссв26800 0.0 1018178
08:00+9с24720 0.0 1019155
11:00+16ссв23530 0.0 1020732
14:00+19ссз33525 0.0 10181244
17:00+19сз235553 0.0 10181161
20:00+14всв227398 0.0 101921